{"data":{"norad_id":59220,"intl_designator":"2024-046V","name":"STARLINK-31523","alt_names":[],"object_type":"PAYLOAD","status":"ACTIVE","operator":null,"country":"US","launch_date":"2024-03-11","launch_site_code":"AFWTR","launch_vehicle":null,"mission":null,"orbit_class":"UNKNOWN","rcs_meters":null,"size_class":null,"mass_kg":null,"dimensions":null,"purposes":["comms"],"wikipedia_slug":null,"has_3d_model":false,"image_url":null,"decayed_at":null,"tle_current":{"epoch":"2026-09-20T09:45:36.657792Z","epoch_age_seconds":166933,"freshness":"FRESH","line1":"1 59220U 24046V   26263.40667428  .00000725  00000+0  32597-4 0  9993","line2":"2 59220  53.1602 326.4961 0001220  84.2781 275.8361 15.34392342142918","mean_motion":15.34392342,"eccentricity":0.000122,"inclination_deg":53.1602,"raan_deg":326.4961,"arg_perigee_deg":84.2781,"mean_anomaly_deg":275.8361,"bstar":3.2597e-5,"rev_number":14291,"period_min":93.848226466188,"perigee_km":461.89141620544,"apogee_km":463.5605867778,"semimajor_km":6840.8630014916,"source":"CELESTRAK","updated_at":"2026-09-21T09:00:34.072674Z"}}}